This is the latest recevied weather packets stored in our database for station/object KC3QLX. If no packets are shown the sender has not sent any weather packets the latest 10 day(s).
| Time | Temp. | Humidity | Pressure | Rain* | Wind** | Luminosity | Snow |
|---|---|---|---|---|---|---|---|
| 1778041107 | 20.56° C | 53% | 1008.8 hPa | 0 mm | - | 0 W/m² | - |
| 1778040804 | 20.56° C | 53% | 1008.8 hPa | 0 mm | - | 0 W/m² | - |
| 1778040503 | 20.56° C | 53% | 1008.7 hPa | 0 mm | - | 0 W/m² | - |
| 1778040198 | 21.11° C | 52% | 1008.5 hPa | 0 mm | - | 0 W/m² | - |
| 1778039894 | 20.56° C | 52% | 1009 hPa | 0 mm | - | 0 W/m² | - |
| 1778039592 | 20.56° C | 53% | 1008.8 hPa | 0 mm | - | 0 W/m² | - |
| 1778039289 | 20.56° C | 54% | 1008.7 hPa | 0 mm | - | 0 W/m² | - |
| 1778038986 | 20.56° C | 53% | 1008.7 hPa | 0 mm | - | 0 W/m² | - |
| 1778038682 | 21.11° C | 52% | 1008.5 hPa | 0 mm | - | 0 W/m² | - |
| 1778038380 | 20.56° C | 52% | 1008.7 hPa | 0 mm | - | 0 W/m² | - |
| 1778038076 | 20.56° C | 51% | 1008.3 hPa | 0 mm | - | 0 W/m² | - |
| 1778037773 | 20.56° C | 53% | 1008.8 hPa | 0 mm | - | 0 W/m² | - |
| 1778037470 | 20.56° C | 53% | 1008.7 hPa | 0 mm | - | 0 W/m² | - |
| 1778037167 | 20.56° C | 53% | 1009 hPa | 0 mm | - | 0 W/m² | - |
| 1778036865 | 20° C | 53% | 1008.5 hPa | 0 mm | - | 0 W/m² | - |
| 1778036563 | 20.56° C | 54% | 1008.9 hPa | 0 mm | - | 0 W/m² | - |
| 1778036260 | 20.56° C | 53% | 1008.8 hPa | 0 mm | - | 0 W/m² | - |
| 1778035956 | 20.56° C | 53% | 1008.7 hPa | 0 mm | - | 0 W/m² | - |
| 1778035653 | 21.11° C | 52% | 1008.5 hPa | 0 mm | - | 0 W/m² | - |
| 1778035350 | 21.11° C | 52% | 1008.8 hPa | 0 mm | - | 0 W/m² | - |
| 1778035046 | 21.11° C | 51% | 1008.8 hPa | 0 mm | - | 0 W/m² | - |
| 1778034743 | 21.11° C | 50% | 1009 hPa | 0 mm | - | 0 W/m² | - |
| 1778034440 | 21.67° C | 50% | 1008.9 hPa | 0 mm | - | 0 W/m² | - |
| 1778034138 | 21.67° C | 49% | 1008.8 hPa | 0 mm | - | 0 W/m² | - |
| 1778033835 | 21.67° C | 48% | 1008.8 hPa | 0 mm | - | 0 W/m² | - |
* Rain latest hour (hover to see other rain measurements)
** Current wind speed in m/s (hover to see current wind gust speed)